Epoch = 2019 Aug. 25.0 TT T = 2019 Sept. 5.66915 TT Peri. = 234.92054 e = 0.1191406 Node = 243.23503 2000.0 q = 2.7899378 AU Incl. = 16.95981 a = 3.1672907 AU n = 0.17485263 P = 5.64 years
H = 17.7 G = 0.15